{"data":{"norad_id":59686,"intl_designator":"2024-086E","name":"STARLINK-32100","alt_names":[],"object_type":"PAYLOAD","status":"ACTIVE","operator":null,"country":"US","launch_date":"2024-05-08","launch_site_code":"AFETR","launch_vehicle":null,"mission":null,"orbit_class":"UNKNOWN","rcs_meters":null,"size_class":null,"mass_kg":null,"dimensions":null,"purposes":["comms"],"wikipedia_slug":null,"has_3d_model":false,"image_url":null,"decayed_at":null,"tle_current":{"epoch":"2026-05-24T21:32:31.667136Z","epoch_age_seconds":94073,"freshness":"FRESH","line1":"1 59686U 24086E   26144.89758874 -.00000970  00000+0 -25754-4 0  9991","line2":"2 59686  43.0039 331.4092 0001091 262.4532  97.6196 15.27573971115970","mean_motion":15.27573971,"eccentricity":0.0001091,"inclination_deg":43.0039,"raan_deg":331.4092,"arg_perigee_deg":262.4532,"mean_anomaly_deg":97.6196,"bstar":-2.5754e-5,"rev_number":11597,"period_min":94.267120763869,"perigee_km":482.31859172128,"apogee_km":483.81570646662,"semimajor_km":6861.204149094,"source":"CELESTRAK","updated_at":"2026-05-25T13:38:19.023723Z"}}}